Regional Weather Roundup
Issued by NWS

Home | Current Version | Previous Version | Text Only | Print | Product List | Glossary On
Versions: 1 2 3 4 5 6 7 8 9 10 11 12 13 14 15 16 17 18 19 20 21 22 23 24 25 26 27 28 29 30 31 32 33 34 35 36 37 38 39 40 41 42 43 44 45 46 47 48 49 50
000
ASUS42 KKEY 302310
RWRKEY

FLORIDA REGIONAL WEATHER ROUNDUP FOR THE FLORIDA KEYS
NATIONAL WEATHER SERVICE KEY WEST FLORIDA
700 PM EDT THU JUL 30 2015

...SOUTH FLORIDA AND THE KEYS...

CITY           SKY/WX    TMP DP  RH WIND       PRES   REMARKS
FORT MYERS     CLOUDY    85  76  74 W10       29.97R HX  94
SW REGIONAL AP CLOUDY    84  76  76 SW14      29.98R HX  93
NAPLES         PTSUNNY   87  78  74 SW9       29.98R HX 100
MIAMI          CLOUDY    89  68  49 W9        29.98S HX  93
WEST KENDALL   CLOUDY    88  71  57 W7        29.98S HX  94
HOMESTEAD      CLOUDY    87  76  70 SW7       29.98S HX  97
MARATHON       MOSUNNY   89  75  63 VRB3      29.99S HX  99
BOCA CHICA NAS CLOUDY    87  74  64 SW5       29.99S HX  95
KEY WEST INTL  PTSUNNY   86  74  67 SW7       30.00S HX  94

...INTERNATIONAL WEATHER...

CITY           SKY/WX    TMP DP  RH WIND       PRES   REMARKS
NASSAU BAHAMAS PTSUNNY   86  77  74 S7        30.01F HX  97
CANCUN MEXICO  MOSUNNY   88  77  70 E6        29.98F HX 100
COZUMEL MEXICO MOSUNNY   84  75  74 SE8       29.98S HX  92

ADJACENT COASTAL WATERS...

STATION/POSITION TIME  SKY/WX   TEMP    WIND        PRES    WAVE
                                AIR SEA DIR/SP/G            HT/PER
                 (UTC)          (F)     (DEG/KT/KT) (MB)    (FT/S)
PULASKI SHOAL LI 2200            85     250/  6/  6 1015.5F
SAND KEY         2250            85     270/  6/  7 1015.7S
SOMBRERO KEY     2300            86      CALM  /  2 1016.5R
LONG KEY         2300            87 90  250/  2/  3 1016.5R
MOLASSES REEF    2300            86 87  240/  8/  9 1015.7R
FOWEY ROCKS      NOT AVBL

$$


USA.gov is the U.S. government's official web portal to all federal, state and local government web resources and services.